| time (UTC) | temp F | wind direction | speed MPH | gust MPH | rain 1hr in | rain 24hr in | rain mn in | humidity % | barometer mb |
| 20260508151520 | 62 | 255 | 14.0 | 20.0 | 0.00 | 0.04 | 0.00 | 64 | 1010.2 |
| 20260508151011 | 61 | 254 | 15.0 | 19.0 | 0.00 | 0.04 | 0.00 | 65 | 1010.3 |
| 20260508150514 | 61 | 262 | 14.0 | 19.0 | 0.00 | 0.04 | 0.00 | 66 | 1010.4 |
| 20260508150009 | 61 | 268 | 14.0 | 20.0 | 0.00 | 0.04 | 0.00 | 69 | 1010.4 |
| 20260508145502 | 61 | 274 | 17.0 | 20.0 | 0.00 | 0.04 | 0.00 | 66 | 1010.5 |
| 20260508145004 | 61 | 257 | 15.0 | 18.0 | 0.00 | 0.04 | 0.00 | 67 | 1010.5 |
| 20260508144004 | 60 | 246 | 12.0 | 18.0 | 0.00 | 0.04 | 0.00 | 70 | 1010.6 |
| 20260508143505 | 60 | 248 | 15.0 | 19.0 | 0.00 | 0.04 | 0.00 | 70 | 1010.6 |
| 20260508142010 | 58 | 231 | 14.0 | 21.0 | 0.00 | 0.04 | 0.00 | 73 | 1010.6 |
| 20260508141516 | 58 | 244 | 13.0 | 21.0 | 0.00 | 0.04 | 0.00 | 72 | 1010.6 |
| 20260508141005 | 58 | 214 | 14.0 | 17.0 | 0.00 | 0.04 | 0.00 | 73 | 1010.6 |
| 20260508140506 | 57 | 238 | 14.0 | 18.0 | 0.00 | 0.04 | 0.00 | 73 | 1010.6 |
| 20260508140026 | 57 | 227 | 14.0 | 18.0 | 0.00 | 0.04 | 0.00 | 74 | 1010.7 |
| 20260508135508 | 57 | 234 | 13.0 | 17.0 | 0.00 | 0.04 | 0.00 | 75 | 1010.7 |
| 20260508135008 | 57 | 236 | 13.0 | 17.0 | 0.00 | 0.04 | 0.00 | 76 | 1010.7 |
| 20260508134508 | 56 | 231 | 12.0 | 17.0 | 0.00 | 0.04 | 0.00 | 77 | 1010.7 |
| 20260508134004 | 56 | 226 | 12.0 | 16.0 | 0.00 | 0.04 | 0.00 | 77 | 1010.8 |
| 20260508133507 | 55 | 229 | 13.0 | 16.0 | 0.00 | 0.04 | 0.00 | 75 | 1010.8 |
| 20260508132505 | 55 | 209 | 11.0 | 16.0 | 0.00 | 0.04 | 0.00 | 76 | 1010.8 |
| 20260508130024 | 53 | 161 | 8.0 | 11.0 | 0.00 | 0.04 | 0.00 | 79 | 1011.0 |
| 20260508125507 | 53 | 157 | 7.0 | 9.0 | 0.00 | 0.04 | 0.00 | 80 | 1011.1 |
| 20260508125008 | 53 | 166 | 7.0 | 9.0 | 0.00 | 0.04 | 0.00 | 80 | 1011.1 |
| 20260508124523 | 53 | 154 | 7.0 | 9.0 | 0.00 | 0.04 | 0.00 | 81 | 1011.2 |
| 20260508124009 | 52 | 145 | 6.0 | 8.0 | 0.00 | 0.04 | 0.00 | 82 | 1011.2 |
| 20260508123510 | 52 | 146 | 6.0 | 8.0 | 0.00 | 0.04 | 0.00 | 82 | 1011.3 |
| 20260508123010 | 52 | 172 | 5.0 | 7.0 | 0.00 | 0.04 | 0.00 | 82 | 1011.3 |
| 20260508122503 | 51 | 159 | 5.0 | 6.0 | 0.00 | 0.04 | 0.00 | 84 | 1011.3 |
| 20260508122006 | 51 | 162 | 3.0 | 6.0 | 0.00 | 0.04 | 0.00 | 85 | 1011.4 |
| 20260508121006 | 50 | 154 | 1.0 | 2.0 | 0.00 | 0.04 | 0.00 | 86 | 1011.4 |
| 20260508120507 | 50 | 130 | 1.0 | 3.0 | 0.00 | 0.04 | 0.00 | 85 | 1011.4 |
| 20260508120017 | 50 | 141 | 1.0 | 5.0 | 0.00 | 0.04 | 0.00 | 85 | 1011.3 |
| 20260508115509 | 50 | 113 | 2.0 | 8.0 | 0.00 | 0.04 | 0.00 | 85 | 1011.0 |
| 20260508114521 | 50 | 169 | 5.0 | 8.0 | 0.00 | 0.04 | 0.00 | 85 | 1010.9 |
| 20260508114008 | 49 | 141 | 5.0 | 8.0 | 0.00 | 0.04 | 0.00 | 86 | 1010.9 |
| 20260508113507 | 49 | 159 | 5.0 | 8.0 | 0.00 | 0.04 | 0.00 | 87 | 1010.8 |
| 20260508113025 | 49 | 165 | 6.0 | 9.0 | 0.00 | 0.04 | 0.00 | 87 | 1010.9 |
| 20260508112508 | 48 | 167 | 7.0 | 9.0 | 0.00 | 0.04 | 0.00 | 87 | 1010.8 |
| 20260508112010 | 48 | 164 | 7.0 | 9.0 | 0.00 | 0.04 | 0.00 | 87 | 1010.8 |
| 20260508111514 | 48 | 167 | 6.0 | 8.0 | 0.00 | 0.04 | 0.00 | 87 | 1010.7 |
| 20260508111005 | 48 | 162 | 6.0 | 7.0 | 0.00 | 0.04 | 0.00 | 87 | 1010.9 |
| 20260508110505 | 48 | 166 | 5.0 | 6.0 | 0.00 | 0.04 | 0.00 | 86 | 1010.8 |
| 20260508110017 | 49 | 167 | 4.0 | 8.0 | 0.00 | 0.04 | 0.00 | 85 | 1010.8 |
| 20260508105506 | 49 | 164 | 4.0 | 8.0 | 0.00 | 0.04 | 0.00 | 84 | 1010.9 |
| 20260508105009 | 49 | 159 | 5.0 | 8.0 | 0.00 | 0.04 | 0.00 | 84 | 1010.8 |
| 20260508104522 | 49 | 153 | 5.0 | 8.0 | 0.00 | 0.04 | 0.00 | 85 | 1010.9 |
| 20260508104011 | 49 | 166 | 5.0 | 7.0 | 0.00 | 0.04 | 0.00 | 85 | 1010.9 |
| 20260508103507 | 49 | 171 | 3.0 | 5.0 | 0.00 | 0.04 | 0.00 | 84 | 1010.9 |
| 20260508102511 | 49 | 116 | 2.0 | 6.0 | 0.00 | 0.04 | 0.00 | 84 | 1010.9 |
| 20260508102003 | 50 | 148 | 3.0 | 6.0 | 0.00 | 0.04 | 0.00 | 84 | 1010.9 |
| 20260508101510 | 50 | 162 | 4.0 | 6.0 | 0.00 | 0.04 | 0.00 | 84 | 1010.9 |
| 20260508101004 | 49 | 146 | 4.0 | 6.0 | 0.00 | 0.04 | 0.00 | 84 | 1010.9 |
| 20260508100505 | 49 | 121 | 2.0 | 5.0 | 0.00 | 0.04 | 0.00 | 86 | 1011.0 |
| 20260508100018 | 49 | 126 | 2.0 | 5.0 | 0.00 | 0.04 | 0.00 | 87 | 1011.0 |
| 20260508095503 | 49 | 132 | 3.0 | 4.0 | 0.00 | 0.04 | 0.00 | 87 | 1011.1 |
| 20260508095002 | 49 | 105 | 2.0 | 4.0 | 0.00 | 0.04 | 0.00 | 87 | 1011.1 |
| 20260508094008 | 48 | 140 | 2.0 | 3.0 | 0.00 | 0.04 | 0.00 | 88 | 1011.2 |
| 20260508093507 | 49 | 110 | 0.0 | 4.0 | 0.00 | 0.04 | 0.00 | 87 | 1011.3 |
| 20260508092507 | 49 | 120 | 3.0 | 6.0 | 0.00 | 0.04 | 0.00 | 86 | 1011.1 |
| 20260508092010 | 49 | 141 | 3.0 | 6.0 | 0.00 | 0.04 | 0.00 | 87 | 1011.1 |
| 20260508091527 | 48 | 156 | 4.0 | 6.0 | 0.00 | 0.04 | 0.00 | 88 | 1011.0 |
| 20260508091004 | 48 | 138 | 3.0 | 5.0 | 0.00 | 0.04 | 0.00 | 88 | 1011.1 |
| 20260508090504 | 48 | 115 | 3.0 | 3.0 | 0.00 | 0.04 | 0.00 | 88 | 1011.2 |
| 20260508090009 | 48 | 127 | 3.0 | 3.0 | 0.00 | 0.04 | 0.00 | 88 | 1011.3 |
| 20260508085502 | 48 | 120 | 2.0 | 3.0 | 0.00 | 0.04 | 0.00 | 88 | 1011.3 |
| 20260508085004 | 48 | 125 | 2.0 | 2.0 | 0.00 | 0.04 | 0.00 | 86 | 1011.4 |
| 20260508084512 | 49 | 261 | 0.0 | 0.0 | 0.00 | 0.04 | 0.00 | 86 | 1011.4 |
| 20260508084004 | 49 | 261 | 0.0 | 0.0 | 0.00 | 0.04 | 0.00 | 87 | 1011.5 |
| 20260508083507 | 49 | 261 | 0.0 | 0.0 | 0.00 | 0.04 | 0.00 | 86 | 1011.5 |
| 20260508083019 | 49 | 261 | 0.0 | 0.0 | 0.00 | 0.04 | 0.00 | 85 | 1011.5 |
| 20260508082508 | 49 | 261 | 0.0 | 0.0 | 0.00 | 0.04 | 0.00 | 85 | 1011.5 |
| 20260508082008 | 49 | 261 | 0.0 | 1.0 | 0.00 | 0.04 | 0.00 | 85 | 1011.5 |
| 20260508081529 | 50 | 355 | 0.0 | 2.0 | 0.00 | 0.04 | 0.00 | 84 | 1011.6 |
| 20260508081009 | 50 | 355 | 0.0 | 4.0 | 0.00 | 0.04 | 0.00 | 83 | 1011.6 |
| 20260508080517 | 50 | 289 | 2.0 | 6.0 | 0.00 | 0.04 | 0.00 | 82 | 1011.5 |
| 20260508080026 | 51 | 292 | 1.0 | 11.0 | 0.00 | 0.04 | 0.00 | 83 | 1011.7 |
| 20260508075504 | 50 | 305 | 2.0 | 11.0 | 0.00 | 0.04 | 0.00 | 82 | 1011.6 |
| 20260508075003 | 50 | 79 | 5.0 | 11.0 | 0.00 | 0.04 | 0.00 | 85 | 1011.6 |
| 20260508074510 | 50 | 312 | 4.0 | 8.0 | 0.00 | 0.04 | 0.00 | 84 | 1011.6 |
| 20260508074003 | 50 | 202 | 6.0 | 9.0 | 0.00 | 0.04 | 0.00 | 85 | 1011.1 |
| 20260508073016 | 49 | 207 | 6.0 | 8.0 | 0.00 | 0.04 | 0.00 | 86 | 1011.2 |
| 20260508072503 | 49 | 200 | 6.0 | 8.0 | 0.00 | 0.04 | 0.00 | 87 | 1011.2 |
| 20260508072007 | 49 | 205 | 5.0 | 9.0 | 0.00 | 0.04 | 0.00 | 87 | 1011.2 |
| 20260508071527 | 49 | 185 | 7.0 | 9.0 | 0.00 | 0.04 | 0.00 | 87 | 1011.2 |
| 20260508070507 | 49 | 193 | 6.0 | 10.0 | 0.00 | 0.04 | 0.00 | 86 | 1011.2 |
| 20260508070027 | 50 | 209 | 6.0 | 10.0 | 0.00 | 0.04 | 0.00 | 86 | 1011.2 |
| 20260508065508 | 50 | 207 | 7.0 | 10.0 | 0.00 | 0.04 | 0.00 | 86 | 1011.2 |
| 20260508064526 | 50 | 214 | 7.0 | 10.0 | 0.00 | 0.04 | 0.00 | 86 | 1011.4 |
| 20260508063505 | 49 | 212 | 7.0 | 9.0 | 0.00 | 0.04 | 0.00 | 88 | 1011.4 |
| 20260508063012 | 49 | 200 | 5.0 | 9.0 | 0.00 | 0.04 | 0.00 | 88 | 1011.5 |
| 20260508062507 | 49 | 186 | 7.0 | 10.0 | 0.00 | 0.04 | 0.00 | 88 | 1011.5 |
| 20260508062004 | 49 | 175 | 7.0 | 10.0 | 0.00 | 0.04 | 0.00 | 89 | 1011.6 |
| 20260508061522 | 49 | 191 | 7.0 | 9.0 | 0.00 | 0.04 | 0.00 | 89 | 1011.6 |
| 20260508061008 | 48 | 167 | 6.0 | 9.0 | 0.00 | 0.04 | 0.00 | 89 | 1011.6 |
| 20260508060508 | 48 | 170 | 6.0 | 8.0 | 0.00 | 0.04 | 0.00 | 90 | 1011.7 |
| 20260508060026 | 48 | 174 | 5.0 | 7.0 | 0.00 | 0.04 | 0.00 | 90 | 1011.7 |
| 20260508055508 | 48 | 173 | 5.0 | 6.0 | 0.00 | 0.04 | 0.00 | 90 | 1011.8 |
| 20260508054524 | 48 | 182 | 4.0 | 5.0 | 0.00 | 0.04 | 0.00 | 90 | 1011.9 |
| 20260508053030 | 49 | 177 | 5.0 | 6.0 | 0.00 | 0.04 | 0.00 | 89 | 1011.9 |
| 20260508052505 | 49 | 203 | 5.0 | 6.0 | 0.00 | 0.04 | 0.00 | 89 | 1012.0 |
| 20260508051521 | 49 | 209 | 5.0 | 7.0 | 0.00 | 0.04 | 0.00 | 88 | 1011.9 |
| 20260508050508 | 50 | 185 | 6.0 | 8.0 | 0.02 | 0.04 | 0.00 | 88 | 1011.9 |
| 20260508050020 | 50 | 192 | 7.0 | 8.0 | 0.02 | 0.04 | 0.00 | 88 | 1012.0 |
| 20260508045506 | 49 | 212 | 5.0 | 7.0 | 0.02 | 0.04 | 0.04 | 89 | 1012.1 |
| 20260508044523 | 49 | 231 | 3.0 | 3.0 | 0.02 | 0.04 | 0.04 | 89 | 1012.3 |
| 20260508043512 | 50 | 205 | 2.0 | 3.0 | 0.02 | 0.04 | 0.04 | 89 | 1012.4 |
| 20260508043023 | 50 | 236 | 0.0 | 4.0 | 0.02 | 0.04 | 0.04 | 89 | 1012.5 |
| 20260508042009 | 51 | 287 | 3.0 | 10.0 | 0.02 | 0.04 | 0.04 | 88 | 1012.6 |
| 20260508041526 | 51 | 254 | 7.0 | 11.0 | 0.02 | 0.04 | 0.04 | 88 | 1012.5 |
| 20260508040504 | 51 | 267 | 6.0 | 7.0 | 0.00 | 0.02 | 0.02 | 87 | 1012.7 |
| 20260508040015 | 51 | 229 | 5.0 | 6.0 | 0.00 | 0.02 | 0.02 | 87 | 1012.2 |
| 20260508035507 | 50 | 210 | 5.0 | 6.0 | 0.00 | 0.02 | 0.02 | 87 | 1012.0 |
| 20260508034519 | 50 | 201 | 3.0 | 5.0 | 0.00 | 0.02 | 0.02 | 87 | 1011.9 |
| 20260508033514 | 50 | 209 | 4.0 | 6.0 | 0.00 | 0.02 | 0.02 | 86 | 1011.9 |
| 20260508033026 | 51 | 174 | 2.0 | 4.0 | 0.00 | 0.02 | 0.02 | 85 | 1012.1 |
| 20260508031527 | 52 | 212 | 3.0 | 10.0 | 0.00 | 0.02 | 0.02 | 83 | 1012.3 |
| 20260508031010 | 52 | 221 | 5.0 | 10.0 | 0.00 | 0.02 | 0.02 | 81 | 1012.4 |
| 20260508030027 | 52 | 231 | 7.0 | 15.0 | 0.00 | 0.02 | 0.02 | 81 | 1012.7 |
| 20260508024516 | 51 | 198 | 9.0 | 14.0 | 0.00 | 0.02 | 0.02 | 81 | 1011.9 |
| 20260508022507 | 51 | 209 | 8.0 | 10.0 | 0.00 | 0.02 | 0.02 | 83 | 1012.0 |
| 20260508014527 | 51 | 214 | 9.0 | 11.0 | 0.00 | 0.02 | 0.02 | 80 | 1011.6 |
| 20260508003028 | 55 | 214 | 9.0 | 15.0 | 0.00 | 0.02 | 0.02 | 71 | 1011.3 |
| 20260508002009 | 55 | 212 | 11.0 | 15.0 | 0.00 | 0.02 | 0.02 | 72 | 1011.2 |
| 20260507235508 | 57 | 229 | 11.0 | 18.0 | 0.00 | 0.02 | 0.02 | 65 | 1011.4 |
| 20260507235010 | 58 | 234 | 13.0 | 18.0 | 0.00 | 0.02 | 0.02 | 64 | 1011.5 |
| 20260507234525 | 58 | 228 | 14.0 | 18.0 | 0.00 | 0.02 | 0.02 | 62 | 1011.5 |
| 20260507234010 | 58 | 246 | 13.0 | 17.0 | 0.00 | 0.02 | 0.02 | 62 | 1011.6 |
| 20260507233516 | 58 | 246 | 13.0 | 16.0 | 0.00 | 0.02 | 0.02 | 60 | 1011.6 |
| 20260507233009 | 59 | 252 | 13.0 | 17.0 | 0.00 | 0.02 | 0.02 | 57 | 1011.6 |
| 20260507232007 | 59 | 249 | 14.0 | 21.0 | 0.00 | 0.02 | 0.02 | 60 | 1011.7 |
| 20260507231530 | 60 | 268 | 15.0 | 21.0 | 0.00 | 0.02 | 0.02 | 57 | 1011.6 |
| 20260507231006 | 60 | 256 | 16.0 | 21.0 | 0.00 | 0.02 | 0.02 | 56 | 1011.5 |
| 20260507230509 | 60 | 272 | 17.0 | 24.0 | 0.00 | 0.02 | 0.02 | 55 | 1011.5 |
| 20260507230023 | 59 | 254 | 16.0 | 24.0 | 0.00 | 0.02 | 0.02 | 56 | 1011.5 |
| 20260507225507 | 60 | 255 | 16.0 | 22.0 | 0.00 | 0.02 | 0.02 | 55 | 1011.6 |
| 20260507224004 | 60 | 245 | 13.0 | 19.0 | 0.00 | 0.02 | 0.02 | 54 | 1011.4 |
| 20260507223503 | 60 | 250 | 15.0 | 19.0 | 0.00 | 0.02 | 0.02 | 52 | 1011.4 |
| 20260507223011 | 60 | 242 | 13.0 | 17.0 | 0.00 | 0.02 | 0.02 | 53 | 1011.8 |
| 20260507222506 | 61 | 245 | 12.0 | 15.0 | 0.00 | 0.02 | 0.02 | 52 | 1011.8 |
| 20260507222003 | 61 | 255 | 10.0 | 14.0 | 0.00 | 0.02 | 0.02 | 54 | 1011.8 |
| 20260507221515 | 60 | 253 | 10.0 | 14.0 | 0.00 | 0.02 | 0.02 | 55 | 1011.7 |
| 20260507221008 | 60 | 253 | 11.0 | 17.0 | 0.00 | 0.02 | 0.02 | 53 | 1011.7 |
| 20260507220506 | 60 | 247 | 10.0 | 17.0 | 0.00 | 0.02 | 0.02 | 55 | 1011.8 |
| 20260507220021 | 60 | 257 | 13.0 | 19.0 | 0.00 | 0.02 | 0.02 | 54 | 1011.8 |
| 20260507215507 | 60 | 251 | 13.0 | 19.0 | 0.00 | 0.02 | 0.02 | 55 | 1011.9 |
| 20260507215008 | 60 | 273 | 15.0 | 18.0 | 0.00 | 0.02 | 0.02 | 54 | 1011.8 |
| 20260507214521 | 60 | 264 | 14.0 | 18.0 | 0.00 | 0.02 | 0.02 | 55 | 1011.8 |
| 20260507214009 | 59 | 269 | 13.0 | 18.0 | 0.00 | 0.02 | 0.02 | 59 | 1011.8 |
| 20260507213006 | 58 | 256 | 12.0 | 16.0 | 0.00 | 0.02 | 0.02 | 61 | 1012.0 |
| 20260507212504 | 58 | 262 | 12.0 | 16.0 | 0.00 | 0.02 | 0.02 | 61 | 1012.0 |
| 20260507212003 | 58 | 267 | 12.0 | 17.0 | 0.00 | 0.02 | 0.02 | 63 | 1012.4 |
| 20260507211004 | 58 | 268 | 14.0 | 22.0 | 0.00 | 0.02 | 0.02 | 60 | 1012.2 |
| 20260507210509 | 58 | 265 | 19.0 | 22.0 | 0.00 | 0.02 | 0.02 | 56 | 1012.2 |
| 20260507205507 | 59 | 266 | 14.0 | 21.0 | 0.00 | 0.02 | 0.02 | 62 | 1012.1 |
| 20260507205006 | 58 | 271 | 16.0 | 21.0 | 0.00 | 0.02 | 0.02 | 59 | 1012.0 |
| 20260507204007 | 58 | 250 | 12.0 | 16.0 | 0.01 | 0.02 | 0.02 | 62 | 1012.1 |
| 20260507203505 | 58 | 246 | 11.0 | 14.0 | 0.01 | 0.02 | 0.02 | 64 | 1012.1 |
| 20260507203025 | 57 | 257 | 12.0 | 14.0 | 0.02 | 0.02 | 0.02 | 69 | 1012.1 |
| 20260507202503 | 56 | 254 | 11.0 | 14.0 | 0.02 | 0.02 | 0.02 | 69 | 1012.1 |
| 20260507202003 | 54 | 220 | 9.0 | 12.0 | 0.02 | 0.02 | 0.02 | 73 | 1012.3 |
| 20260507201509 | 54 | 247 | 7.0 | 13.0 | 0.02 | 0.02 | 0.02 | 78 | 1012.7 |
| 20260507201004 | 54 | 259 | 10.0 | 16.0 | 0.02 | 0.02 | 0.02 | 76 | 1013.1 |
| 20260507200504 | 53 | 264 | 12.0 | 16.0 | 0.02 | 0.02 | 0.02 | 74 | 1013.2 |
| 20260507195504 | 52 | 270 | 10.0 | 19.0 | 0.02 | 0.02 | 0.02 | 78 | 1013.4 |
| 20260507195006 | 52 | 285 | 12.0 | 19.0 | 0.02 | 0.02 | 0.02 | 77 | 1013.6 |
| 20260507194519 | 52 | 266 | 10.0 | 19.0 | 0.02 | 0.02 | 0.02 | 77 | 1014.0 |
| 20260507194006 | 52 | 325 | 3.0 | 6.0 | 0.01 | 0.01 | 0.01 | 78 | 1014.0 |
| 20260507193506 | 53 | 63 | 2.0 | 9.0 | 0.01 | 0.01 | 0.01 | 76 | 1013.9 |
| 20260507192508 | 55 | 323 | 4.0 | 7.0 | 0.00 | 0.00 | 0.00 | 66 | 1013.7 |
| 20260507192011 | 55 | 327 | 1.0 | 5.0 | 0.00 | 0.00 | 0.00 | 67 | 1013.2 |
| 20260507191526 | 55 | 291 | 1.0 | 27.0 | 0.00 | 0.00 | 0.00 | 64 | 1012.9 |
| 20260507191004 | 56 | 352 | 2.0 | 37.0 | 0.00 | 0.00 | 0.00 | 61 | 1013.2 |
| 20260507190504 | 57 | 274 | 22.0 | 37.0 | 0.00 | 0.00 | 0.00 | 52 | 1013.4 |
| 20260507185503 | 61 | 279 | 12.0 | 22.0 | 0.00 | 0.00 | 0.00 | 41 | 1012.6 |
| 20260507185005 | 61 | 266 | 17.0 | 22.0 | 0.00 | 0.00 | 0.00 | 40 | 1012.4 |
| 20260507184006 | 61 | 257 | 18.0 | 25.0 | 0.00 | 0.00 | 0.00 | 39 | 1012.3 |
| 20260507183504 | 61 | 269 | 20.0 | 25.0 | 0.00 | 0.00 | 0.00 | 40 | 1012.3 |
| 20260507183032 | 61 | 259 | 16.0 | 24.0 | 0.00 | 0.00 | 0.00 | 41 | 1012.4 |
| 20260507182505 | 61 | 251 | 16.0 | 24.0 | 0.00 | 0.00 | 0.00 | 40 | 1012.4 |
| 20260507182009 | 62 | 251 | 17.0 | 24.0 | 0.00 | 0.00 | 0.00 | 39 | 1012.4 |
| 20260507181520 | 61 | 269 | 15.0 | 20.0 | 0.00 | 0.00 | 0.00 | 41 | 1012.5 |
| 20260507181013 | 62 | 269 | 15.0 | 28.0 | 0.00 | 0.00 | 0.00 | 38 | 1012.7 |
| 20260507180507 | 62 | 274 | 16.0 | 28.0 | 0.00 | 0.00 | 0.00 | 38 | 1012.7 |
| 20260507180036 | 63 | 249 | 17.0 | 22.0 | 0.00 | 0.00 | 0.00 | 37 | 1012.8 |
| 20260507175507 | 62 | 223 | 16.0 | 25.0 | 0.00 | 0.00 | 0.00 | 37 | 1012.9 |
| 20260507175004 | 62 | 256 | 17.0 | 25.0 | 0.00 | 0.00 | 0.00 | 38 | 1013.0 |
| 20260507174511 | 62 | 218 | 17.0 | 25.0 | 0.00 | 0.00 | 0.00 | 36 | 1013.1 |
| 20260507174004 | 62 | 255 | 19.0 | 25.0 | 0.00 | 0.00 | 0.00 | 37 | 1013.3 |
| 20260507173505 | 61 | 258 | 13.0 | 25.0 | 0.00 | 0.00 | 0.00 | 38 | 1013.3 |
| 20260507173016 | 60 | 251 | 16.0 | 25.0 | 0.00 | 0.00 | 0.00 | 41 | 1013.4 |
| 20260507172506 | 60 | 260 | 18.0 | 26.0 | 0.00 | 0.00 | 0.00 | 41 | 1013.4 |
| 20260507172008 | 61 | 229 | 19.0 | 26.0 | 0.00 | 0.00 | 0.00 | 38 | 1013.5 |
| 20260507171520 | 60 | 259 | 15.0 | 25.0 | 0.00 | 0.00 | 0.00 | 37 | 1013.7 |
| 20260507171007 | 60 | 229 | 16.0 | 24.0 | 0.00 | 0.00 | 0.00 | 37 | 1013.9 |
| 20260507170507 | 60 | 240 | 18.0 | 23.0 | 0.00 | 0.00 | 0.00 | 38 | 1013.8 |
| 20260507170024 | 60 | 229 | 16.0 | 21.0 | 0.00 | 0.00 | 0.00 | 39 | 1013.8 |
| 20260507165506 | 60 | 261 | 15.0 | 23.0 | 0.00 | 0.00 | 0.00 | 37 | 1013.9 |
| 20260507165008 | 60 | 232 | 19.0 | 23.0 | 0.00 | 0.00 | 0.00 | 37 | 1013.9 |
| 20260507164524 | 61 | 225 | 14.0 | 23.0 | 0.00 | 0.00 | 0.00 | 36 | 1014.0 |
| 20260507164004 | 60 | 238 | 14.0 | 24.0 | 0.00 | 0.00 | 0.00 | 38 | 1014.1 |
| 20260507163505 | 60 | 248 | 17.0 | 24.0 | 0.00 | 0.00 | 0.00 | 37 | 1014.2 |
| 20260507163012 | 59 | 238 | 14.0 | 23.0 | 0.00 | 0.00 | 0.00 | 40 | 1014.3 |
| 20260507162506 | 59 | 259 | 15.0 | 23.0 | 0.00 | 0.00 | 0.00 | 37 | 1014.4 |
| 20260507162005 | 59 | 255 | 16.0 | 23.0 | 0.00 | 0.00 | 0.00 | 37 | 1014.5 |
| 20260507161533 | 60 | 250 | 16.0 | 23.0 | 0.00 | 0.00 | 0.00 | 36 | 1014.4 |
| 20260507161008 | 59 | 245 | 16.0 | 22.0 | 0.00 | 0.00 | 0.00 | 39 | 1014.4 |
| 20260507160509 | 59 | 250 | 12.0 | 22.0 | 0.00 | 0.00 | 0.00 | 40 | 1014.4 |
| 20260507160033 | 59 | 225 | 15.0 | 21.0 | 0.00 | 0.00 | 0.00 | 41 | 1014.5 |
| 20260507155507 | 58 | 240 | 14.0 | 23.0 | 0.00 | 0.00 | 0.00 | 41 | 1014.7 |
| 20260507155010 | 58 | 257 | 14.0 | 23.0 | 0.00 | 0.00 | 0.00 | 42 | 1014.7 |
| 20260507154532 | 58 | 252 | 16.0 | 23.0 | 0.00 | 0.00 | 0.00 | 41 | 1014.9 |
| 20260507154010 | 58 | 252 | 16.0 | 22.0 | 0.00 | 0.00 | 0.00 | 40 | 1014.9 |
| 20260507153508 | 58 | 252 | 13.0 | 22.0 | 0.00 | 0.00 | 0.00 | 43 | 1014.9 |
| 20260507153026 | 57 | 245 | 16.0 | 28.0 | 0.00 | 0.00 | 0.00 | 44 | 1015.0 |
| 20260507152506 | 56 | 259 | 16.0 | 28.0 | 0.00 | 0.00 | 0.00 | 42 | 1015.2 |
| 20260507152004 | 56 | 258 | 12.0 | 20.0 | 0.00 | 0.00 | 0.00 | 42 | 1015.2 |